When you browse on this site, cookies collect data to enhance your experience and personalize the content and advertising you see.
Visit our Privacy Policy to learn more. By continuing to use the site, you agree to this use of cookies and data.
  • en France
  • Liste des pays
  • À 7 jours
  • Température de l'eau
  • Carte météo
  • Widgets météo
  • user-avatar
    Se connecter

    Météo par heure à Rumbek

    Ce jour, 24 Août, Samedi

    Heure Température Précipitation Vent Pression Humidité
    00:00 +22°C° 0 mm 1 m/s 724 mmHg 97%
    01:00 +22°C° 0 mm 1 m/s 723 mmHg 97%
    02:00 +22°C° 0 mm 1 m/s 723 mmHg 97%
    03:00 +22°C° 0 mm 1 m/s 723 mmHg 97%
    04:00 +22°C° 0 mm 1 m/s 723 mmHg 97%
    05:00 +22°C° 0 mm 1 m/s 723 mmHg 97%
    06:00 +23°C° 0 mm 1 m/s 724 mmHg 93%
    07:00 +24°C° 0 mm 1 m/s 725 mmHg 89%
    08:00 +25°C° 0 mm 1 m/s 725 mmHg 85%
    09:00 +27°C° 0 mm 1 m/s 725 mmHg 76%
    10:00 +29°C° 0 mm 1 m/s 725 mmHg 68%
    11:00 +32°C° 0 mm 2 m/s 725 mmHg 59%
    12:00 +32°C° 0 mm 2 m/s 724 mmHg 57%
    13:00 +34°C° 0 mm 2 m/s 723 mmHg 54%
    14:00 +34°C° 0 mm 2 m/s 722 mmHg 52%
    15:00 +34°C° 0.1 mm 2 m/s 722 mmHg 58%
    16:00 +32°C° 0.1 mm 2 m/s 721 mmHg 63%
    17:00 +31°C° 0.1 mm 2 m/s 721 mmHg 69%
    18:00 +29°C° 0.2 mm 1 m/s 721 mmHg 75%
    19:00 +27°C° 0.2 mm 1 m/s 722 mmHg 80%
    20:00 +26°C° 0.2 mm 1 m/s 722 mmHg 86%
    21:00 +25°C° 0 mm 1 m/s 722 mmHg 87%
    22:00 +25°C° 0 mm 1 m/s 723 mmHg 88%
    23:00 +24°C° 0 mm 1 m/s 723 mmHg 89%

    Demain, 25 Août, Dimanche

    Heure Température Précipitation Vent Pression Humidité
    00:00 +24°C° 0 mm 1 m/s 723 mmHg 91%
    01:00 +22°C° 0 mm 0 m/s 722 mmHg 93%
    02:00 +21°C° 0 mm 0 m/s 722 mmHg 95%
    03:00 +21°C° 0 mm 0 m/s 722 mmHg 95%
    04:00 +21°C° 0 mm 0 m/s 722 mmHg 96%
    05:00 +21°C° 0 mm 0 m/s 723 mmHg 96%
    06:00 +22°C° 0 mm 0 m/s 723 mmHg 92%
    07:00 +24°C° 0 mm 0 m/s 724 mmHg 88%
    08:00 +25°C° 0 mm 0 m/s 724 mmHg 84%
    09:00 +29°C° 0 mm 1 m/s 724 mmHg 75%
    10:00 +31°C° 0 mm 1 m/s 724 mmHg 66%
    11:00 +33°C° 0 mm 1 m/s 724 mmHg 56%
    12:00 +34°C° 0.2 mm 1 m/s 723 mmHg 55%
    13:00 +34°C° 0.2 mm 1 m/s 723 mmHg 54%
    14:00 +35°C° 0.2 mm 2 m/s 722 mmHg 52%
    15:00 +32°C° 0.6 mm 1 m/s 721 mmHg 63%
    16:00 +30°C° 0.6 mm 1 m/s 721 mmHg 74%
    17:00 +28°C° 0.6 mm 1 m/s 720 mmHg 85%
    18:00 +27°C° 0.1 mm 1 m/s 721 mmHg 86%
    19:00 +26°C° 0.1 mm 1 m/s 721 mmHg 88%
    20:00 +23°C° 0.1 mm 0 m/s 722 mmHg 89%
    21:00 +23°C° 0.1 mm 0 m/s 722 mmHg 89%
    22:00 +23°C° 0.1 mm 0 m/s 722 mmHg 90%
    23:00 +22°C° 0.1 mm 0 m/s 722 mmHg 90%

    Après-demain, 26 Août, Lundi

    Heure Température Précipitation Vent Pression Humidité
    00:00 +22°C° 0.2 mm 0 m/s 722 mmHg 91%
    01:00 +24°C° 0.2 mm 1 m/s 722 mmHg 92%
    02:00 +23°C° 0.2 mm 1 m/s 721 mmHg 93%
    03:00 +23°C° 0 mm 1 m/s 722 mmHg 93%
    04:00 +23°C° 0 mm 1 m/s 722 mmHg 93%
    05:00 +23°C° 0 mm 1 m/s 722 mmHg 94%
    06:00 +24°C° 0.4 mm 1 m/s 723 mmHg 93%
    07:00 +25°C° 0.4 mm 1 m/s 723 mmHg 91%
    08:00 +26°C° 0.4 mm 1 m/s 724 mmHg 90%
    09:00 +27°C° 2 mm 1 m/s 724 mmHg 87%
    10:00 +28°C° 2 mm 2 m/s 724 mmHg 85%
    11:00 +29°C° 2 mm 2 m/s 724 mmHg 82%
    12:00 +29°C° 1.2 mm 2 m/s 723 mmHg 83%
    13:00 +28°C° 1.2 mm 2 m/s 723 mmHg 83%
    14:00 +28°C° 1.2 mm 2 m/s 722 mmHg 84%
    15:00 +28°C° 0 mm 1 m/s 722 mmHg 85%
    16:00 +27°C° 0 mm 1 m/s 721 mmHg 86%
    17:00 +27°C° 0 mm 1 m/s 721 mmHg 87%
    18:00 +26°C° 0 mm 1 m/s 722 mmHg 89%
    19:00 +23°C° 0 mm 0 m/s 722 mmHg 91%
    20:00 +23°C° 0 mm 0 m/s 723 mmHg 92%
    21:00 +24°C° 0 mm 1 m/s 723 mmHg 92%
    22:00 +24°C° 0 mm 1 m/s 723 mmHg 92%
    23:00 +24°C° 0 mm 1 m/s 723 mmHg 92%

    27 Août, Mardi

    Heure Température Précipitation Vent Pression Humidité
    00:00 +24°C° 0 mm 1 m/s 723 mmHg 91%
    01:00 +24°C° 0 mm 1 m/s 723 mmHg 90%
    02:00 +23°C° 0 mm 1 m/s 722 mmHg 89%
    03:00 +23°C° 0 mm 1 m/s 722 mmHg 90%
    04:00 +23°C° 0 mm 1 m/s 723 mmHg 91%
    05:00 +23°C° 0 mm 1 m/s 723 mmHg 92%
    06:00 +23°C° 0.2 mm 1 m/s 723 mmHg 92%
    07:00 +24°C° 0.2 mm 1 m/s 724 mmHg 92%
    08:00 +24°C° 0.2 mm 1 m/s 725 mmHg 92%
    09:00 +25°C° 0 mm 1 m/s 725 mmHg 87%
    10:00 +27°C° 0 mm 2 m/s 725 mmHg 81%
    11:00 +28°C° 0 mm 2 m/s 725 mmHg 76%
    12:00 +29°C° 0.5 mm 2 m/s 724 mmHg 74%
    13:00 +29°C° 0.5 mm 2 m/s 723 mmHg 71%
    14:00 +30°C° 0.5 mm 2 m/s 723 mmHg 69%
    15:00 +30°C° 0.9 mm 2 m/s 723 mmHg 74%
    16:00 +29°C° 0.9 mm 1 m/s 722 mmHg 78%
    17:00 +28°C° 0.9 mm 1 m/s 722 mmHg 82%
    18:00 +27°C° 0.1 mm 1 m/s 722 mmHg 85%
    19:00 +26°C° 0.1 mm 1 m/s 723 mmHg 89%
    20:00 +25°C° 0.1 mm 1 m/s 723 mmHg 92%
    21:00 +25°C° 0.3 mm 1 m/s 723 mmHg 91%
    22:00 +25°C° 0.3 mm 1 m/s 724 mmHg 91%
    23:00 +25°C° 0.3 mm 1 m/s 724 mmHg 91%

    28 Août, Mercredi

    Heure Température Précipitation Vent Pression Humidité
    00:00 +24°C° 0.9 mm 1 m/s 724 mmHg 93%
    01:00 +24°C° 0.9 mm 1 m/s 723 mmHg 94%
    02:00 +23°C° 0.9 mm 1 m/s 723 mmHg 95%
    03:00 +23°C° 0.1 mm 1 m/s 723 mmHg 96%
    04:00 +23°C° 0.1 mm 1 m/s 723 mmHg 96%
    05:00 +23°C° 0.1 mm 1 m/s 723 mmHg 96%
    06:00 +23°C° 0 mm 1 m/s 724 mmHg 94%
    07:00 +24°C° 0 mm 1 m/s 724 mmHg 93%
    08:00 +25°C° 0 mm 1 m/s 725 mmHg 92%
    09:00 +25°C° 0 mm 1 m/s 725 mmHg 88%
    10:00 +26°C° 0 mm 1 m/s 725 mmHg 85%
    11:00 +27°C° 0 mm 1 m/s 725 mmHg 81%
    12:00 +27°C° 0 mm 1 m/s 724 mmHg 79%
    13:00 +27°C° 0 mm 1 m/s 723 mmHg 76%
    14:00 +28°C° 0 mm 1 m/s 722 mmHg 74%
    15:00 +28°C° 0 mm 1 m/s 722 mmHg 74%
    16:00 +28°C° 0 mm 1 m/s 722 mmHg 75%
    17:00 +26°C° 0 mm 0 m/s 721 mmHg 75%
    18:00 +27°C° 0 mm 1 m/s 722 mmHg 79%
    19:00 +26°C° 0 mm 1 m/s 722 mmHg 82%
    20:00 +25°C° 0 mm 1 m/s 722 mmHg 86%
    21:00 +24°C° 0 mm 1 m/s 722 mmHg 88%
    22:00 +24°C° 0 mm 1 m/s 722 mmHg 89%
    23:00 +23°C° 0 mm 1 m/s 723 mmHg 91%

    29 Août, Jeudi

    Heure Température Précipitation Vent Pression Humidité
    00:00 +23°C° 0 mm 1 m/s 722 mmHg 90%
    01:00 +23°C° 0 mm 1 m/s 722 mmHg 89%
    02:00 +23°C° 0 mm 1 m/s 722 mmHg 88%
    03:00 +23°C° 0 mm 1 m/s 722 mmHg 88%
    04:00 +23°C° 0 mm 1 m/s 722 mmHg 87%
    05:00 +23°C° 0 mm 1 m/s 723 mmHg 86%
    06:00 +24°C° 0 mm 1 m/s 723 mmHg 85%
    07:00 +24°C° 0 mm 1 m/s 724 mmHg 84%
    08:00 +25°C° 0 mm 1 m/s 724 mmHg 82%
    09:00 +27°C° 0 mm 1 m/s 724 mmHg 77%
    10:00 +29°C° 0 mm 1 m/s 724 mmHg 71%
    11:00 +30°C° 0 mm 1 m/s 724 mmHg 65%
    12:00 +31°C° 0.5 mm 1 m/s 723 mmHg 65%
    13:00 +32°C° 0.5 mm 1 m/s 722 mmHg 65%
    14:00 +32°C° 0.5 mm 1 m/s 721 mmHg 64%
    15:00 +31°C° 1.9 mm 1 m/s 721 mmHg 72%
    16:00 +29°C° 1.9 mm 1 m/s 721 mmHg 80%
    17:00 +28°C° 1.9 mm 1 m/s 721 mmHg 88%
    18:00 +27°C° 0 mm 1 m/s 721 mmHg 89%
    19:00 +23°C° 0 mm 0 m/s 721 mmHg 90%
    20:00 +22°C° 0 mm 0 m/s 721 mmHg 91%
    21:00 +22°C° 0 mm 0 m/s 721 mmHg 91%
    22:00 +22°C° 0 mm 0 m/s 721 mmHg 92%
    23:00 +21°C° 0 mm 0 m/s 722 mmHg 92%
    Voir plus